Theta_e
310 312 312 313 312 311 309 306 304 304 304 305 305 306 306 307 307 308 313 315 309 307 316 317 317 315 312 313 316 317 316 318 319 320 320 321 319 323 323 324 324 325 324 347 348
308 310 312 313 312 310 309 307 305 304 304 305 306 307 307 307 307 308 312 318 309 309 316 317 314 314 314 312 313 312 313 316 317 318 318 319 320 320 321 321 322 323 324 344 348
307 307 308 311 312 310 308 306 304 304 305 305 305 306 307 307 309 318 315 312 309 308 309 316 315 315 313 313 314 312 313 314 315 316 316 316 316 317 318 318 320 320 322 341 345
305 305 307 309 311 310 307 305 304 305 305 305 305 305 307 307 314 315 314 311 309 308 311 316 315 316 314 312 315 312 313 313 314 315 315 314 316 316 316 316 318 318 320 323 325
305 307 307 311 311 309 306 305 305 305 305 305 306 307 307 311 313 315 315 313 310 313 315 315 315 315 312 313 314 313 313 315 315 315 315 316 315 315 315 316 317 317 318 322 323
307 309 308 309 311 309 306 306 306 306 307 308 308 308 308 312 314 315 314 314 314 314 314 315 315 314 315 314 313 314 314 314 315 315 315 313 313 315 316 316 316 317 318 320 323
307 308 309 310 310 308 306 306 307 308 310 309 308 307 308 308 314 314 314 313 313 313 314 314 314 314 314 313 315 315 314 314 314 314 313 314 313 313 315 316 316 316 317 318 320
307 308 309 309 309 307 306 307 309 311 311 309 310 313 312 314 313 313 314 313 313 313 314 314 314 315 315 315 315 314 313 312 313 313 314 313 312 313 314 313 314 316 317 317 319
307 308 309 309 308 307 308 309 313 314 313 315 315 318 318 316 315 314 313 313 313 313 313 313 314 314 315 313 313 313 314 312 313 313 314 312 312 313 314 314 313 314 316 317 317
306 308 309 308 308 309 312 315 315 314 317 317 317 318 317 314 313 313 313 313 313 313 313 313 314 313 313 314 315 314 316 316 315 314 314 313 313 314 315 314 313 314 314 317 317
306 308 308 309 312 313 314 315 312 316 313 316 313 313 313 313 312 313 313 313 313 313 312 313 313 314 314 316 318 319 318 318 317 316 315 314 314 313 314 315 314 314 314 315 317
307 308 308 311 314 314 315 316 312 311 311 311 313 314 313 313 313 312 313 313 313 313 313 312 313 314 316 317 318 318 319 318 316 315 314 315 315 314 314 315 316 315 315 315 316
306 308 308 308 313 315 315 313 309 310 311 314 315 313 313 312 313 313 313 314 313 313 313 313 314 315 315 317 318 317 317 316 316 315 316 315 315 315 315 316 316 316 316 315 317
306 307 307 310 313 315 311 308 309 311 314 319 315 314 313 313 313 313 313 314 315 314 313 313 314 316 316 316 316 318 317 317 318 318 317 316 318 316 315 316 316 316 315 315 315
305 307 307 310 311 309 309 309 311 316 320 313 314 314 313 312 313 315 316 315 315 315 315 315 314 315 316 316 316 317 317 317 317 317 313 315 317 316 315 316 315 315 316 315 314
305 307 308 310 312 310 309 311 314 319 324 313 312 311 311 312 317 316 315 315 316 316 315 315 316 316 316 316 316 316 316 317 316 315 318 316 318 316 316 315 315 315 315 315 315
306 309 310 310 311 311 310 314 318 321 314 313 311 311 311 314 316 315 315 314 315 316 317 318 318 317 317 318 318 318 318 320 320 316 318 315 319 318 318 317 316 315 316 315 315
307 313 313 311 310 310 314 315 320 315 312 311 311 311 313 313 314 315 314 313 315 317 318 316 320 318 316 318 320 319 319 320 322 318 317 319 322 318 317 316 316 316 316 315 315
310 315 317 313 310 311 314 317 314 312 311 311 312 312 312 313 315 314 313 315 318 317 319 319 318 315 314 314 316 317 318 318 321 321 322 318 317 316 317 317 316 316 316 315 315
313 315 317 313 312 312 314 317 311 312 311 312 312 312 313 313 315 314 314 314 316 316 314 316 317 314 314 314 315 315 316 317 319 323 321 316 317 320 318 318 318 317 314 314 315
313 316 314 313 313 313 314 312 312 311 312 312 312 312 313 313 313 313 315 314 315 314 313 314 315 313 313 314 313 315 316 317 318 318 321 318 317 319 318 319 319 319 316 316 317
312 316 314 311 313 313 311 313 313 313 312 313 312 312 312 312 316 315 315 315 314 313 314 312 314 313 312 312 312 313 313 315 320 322 320 322 322 318 317 317 319 320 318 318 320
311 315 313 312 313 312 313 313 313 313 311 312 312 311 311 315 315 316 315 313 313 313 313 312 313 315 314 315 316 317 315 314 317 319 321 322 319 317 317 318 318 319 320 321 320
312 313 312 311 311 312 313 314 313 311 310 310 310 312 311 312 311 311 313 313 313 313 314 315 309 314 314 314 313 314 314 314 316 319 321 320 319 317 318 318 318 318 319 320 321
313 311 311 310 311 311 313 314 311 310 310 309 313 312 312 314 313 313 313 314 313 313 313 312 313 313 313 313 314 314 315 315 316 316 318 317 318 317 317 317 318 318 319 321 320
311 311 311 311 312 312 311 311 311 310 308 310 312 314 313 312 313 313 313 313 314 313 314 311 312 313 313 312 315 317 317 318 316 317 316 316 317 315 316 317 319 321 321 322 328
307 310 310 311 312 310 310 311 311 309 310 310 313 312 312 313 312 312 312 312 313 312 309 307 309 313 313 314 315 320 317 319 319 319 319 318 316 316 316 320 320 321 322 321 329
Wind_Speed
26 25 25 25 25 24 22 20 15 14 13 13 15 17 19 19 16 12 10 4 10 9 4 6 3 4 7 14 18 22 9 11 11 14 12 28 15 35 31 22 33 33 19 27 25
27 26 26 25 25 24 22 18 14 12 11 12 14 16 19 20 20 18 8 10 7 5 2 7 12 7 16 11 13 8 6 9 7 11 12 20 21 27 22 26 26 34 16 25 27
29 28 27 27 26 25 21 17 12 10 10 11 13 14 16 18 17 6 7 6 6 7 5 5 6 9 10 16 18 15 13 12 19 28 28 23 26 31 17 16 20 27 35 22 27
30 29 28 27 27 26 21 15 11 10 10 11 13 15 14 12 3 1 7 3 5 9 7 11 12 15 5 7 19 6 16 21 22 28 27 14 26 22 21 26 31 35 34 29 18
32 31 29 27 27 24 19 13 11 10 10 11 13 15 13 7 13 5 11 7 6 9 7 8 13 16 7 10 20 8 11 24 23 20 18 25 16 17 30 36 34 38 36 37 25
32 32 30 29 27 22 15 12 10 10 11 13 13 12 12 6 4 5 5 6 3 4 7 9 15 18 15 12 9 19 22 24 26 24 23 12 15 19 33 35 33 33 36 35 30
33 32 31 28 24 19 13 10 10 10 12 13 10 9 9 18 4 8 5 5 6 9 11 10 13 14 19 9 12 21 14 15 16 16 11 21 14 18 31 31 31 32 36 35 35
33 33 32 26 20 14 11 11 10 10 11 11 8 7 8 5 6 11 13 10 9 14 14 9 10 9 12 18 18 12 11 8 12 9 19 15 13 16 34 36 28 30 34 33 35
34 33 31 24 17 12 11 10 10 11 6 10 4 6 11 7 6 3 11 9 13 13 13 17 10 7 13 7 8 7 12 13 19 16 17 9 12 16 33 32 30 30 33 34 36
35 34 28 20 14 12 11 11 13 7 3 9 1 6 10 13 9 5 1 8 13 14 20 25 17 4 5 3 9 12 7 12 16 13 5 7 7 11 16 27 33 33 32 31 36
35 33 24 15 11 13 11 9 15 5 9 12 21 24 23 14 11 9 12 13 16 18 10 23 9 8 14 15 19 9 18 20 20 17 4 7 7 10 18 21 16 29 31 31 34
36 32 19 12 9 8 9 8 15 14 15 24 23 21 16 6 10 12 13 17 12 9 12 10 11 11 17 15 12 19 17 23 22 15 14 12 15 14 17 17 21 18 24 32 35
36 30 15 14 6 10 12 13 18 13 5 13 7 5 3 6 9 17 18 9 7 9 11 11 13 17 16 13 17 16 16 15 18 15 16 12 14 11 12 16 28 29 26 29 37
36 29 13 12 5 12 12 17 14 16 2 6 8 6 5 9 9 20 19 11 4 8 10 10 10 16 15 16 7 14 12 19 17 14 12 3 14 17 10 14 13 22 29 32 34
38 29 9 12 7 12 16 18 14 2 5 5 4 6 10 9 17 10 5 3 5 11 8 14 12 15 19 19 16 20 16 8 13 12 12 10 5 28 5 14 20 17 28 35 38
40 24 10 6 6 18 20 13 7 2 3 6 15 14 17 23 13 16 14 14 14 6 9 17 22 17 16 18 17 18 18 10 12 7 12 11 7 26 13 17 16 16 26 33 36
39 14 5 16 10 17 20 13 1 1 13 11 17 19 17 11 12 11 12 10 9 10 8 15 14 18 14 17 14 10 4 3 3 3 11 3 7 18 9 18 20 18 29 30 39
33 8 4 9 16 14 12 4 3 13 12 15 15 19 6 11 12 10 13 11 11 12 7 2 6 11 16 8 2 13 3 4 6 4 4 2 7 10 15 24 30 36 32 35 38
25 6 3 8 14 12 13 2 3 9 13 13 14 11 12 18 11 11 12 8 7 11 4 5 5 21 20 15 7 2 3 3 6 8 8 8 16 16 6 7 18 17 30 29 25
23 10 4 6 17 10 3 6 6 10 10 11 11 11 16 15 11 9 6 8 5 12 11 3 11 9 16 14 8 10 5 4 3 5 5 6 7 2 6 6 12 15 12 18 26
16 9 3 23 16 6 0 5 12 14 13 4 11 10 12 10 12 11 6 10 8 8 7 5 6 9 9 7 12 5 6 5 7 7 5 3 4 1 6 7 9 14 16 11 25
13 4 11 19 8 2 4 11 22 11 15 7 5 6 9 9 5 6 5 5 7 4 8 2 4 6 10 22 14 17 16 13 6 5 1 1 7 13 4 7 8 15 5 5 22
22 7 10 15 4 4 8 12 19 13 9 7 7 9 15 2 4 7 11 9 11 2 2 3 4 5 5 3 1 3 2 10 9 11 13 8 7 4 9 9 10 13 19 14 23
11 4 10 14 23 10 11 14 14 13 12 15 11 11 10 9 7 7 16 4 6 9 20 16 2 7 8 17 14 19 17 15 6 4 5 7 16 11 7 10 7 11 7 12 36
6 5 10 5 11 15 15 13 13 14 11 18 5 12 12 9 13 12 10 17 16 23 4 5 5 7 18 22 21 23 22 20 17 13 9 14 17 18 6 11 2 7 11 18 30
9 7 9 22 18 14 9 9 13 16 14 9 10 13 8 9 7 24 21 16 10 6 7 5 4 4 16 19 14 18 17 17 19 16 14 17 21 18 6 14 10 13 2 11 24
11 11 10 10 11 9 7 14 19 17 7 24 12 9 13 11 27 31 32 32 18 5 3 3 2 3 7 12 20 2 12 10 14 10 11 11 17 15 3 5 7 14 18 13 11
Wind_Direction
360 357 353 349 346 343 341 338 331 326 324 326 330 333 332 326 322 305 280 311 337 323 23 14 327 250 246 256 246 247 246 250 256 264 279 289 298 296 313 320 313 283 263 148 150
357 355 353 351 347 345 341 336 328 324 317 317 323 330 332 325 321 298 265 228 316 310 347 18 334 308 234 232 243 230 257 251 260 270 278 289 298 307 330 326 325 342 240 155 146
357 355 351 349 346 344 341 336 328 321 311 314 319 328 330 327 330 321 186 202 318 320 300 16 323 315 289 282 257 240 244 260 271 279 284 292 302 307 317 304 318 327 325 152 158
356 355 352 349 346 342 340 338 335 328 319 318 320 320 323 325 346 54 170 224 336 343 348 344 304 276 260 265 280 274 247 243 251 257 274 286 302 299 301 293 306 309 315 289 189
356 354 352 349 346 342 342 344 344 337 327 320 320 318 323 309 263 261 267 263 317 349 10 327 319 316 319 321 331 328 314 316 306 305 283 288 286 293 293 294 300 299 312 309 331
356 355 351 347 345 344 346 346 354 349 335 324 320 310 307 264 260 229 293 309 344 316 317 303 309 323 323 312 307 299 295 296 300 304 303 306 304 297 284 287 291 293 300 305 313
356 351 348 347 347 346 347 352 352 350 343 339 334 307 281 263 178 310 244 353 300 275 290 303 309 335 324 318 301 317 313 303 289 265 275 284 286 279 282 286 290 287 291 296 301
353 350 347 347 348 348 348 347 348 348 342 341 336 320 269 5 321 287 251 251 287 274 255 285 273 276 293 290 293 290 287 287 281 281 269 243 257 260 270 280 281 283 281 286 291
353 351 349 350 352 354 349 343 339 339 353 338 337 316 273 304 272 285 263 241 270 294 277 279 264 245 290 286 291 252 254 250 270 243 244 225 254 248 249 257 270 271 274 271 281
353 351 351 356 4 7 1 354 342 331 352 338 243 283 268 323 304 236 289 251 274 285 286 277 252 198 255 248 257 271 301 300 275 274 272 285 291 294 312 237 248 255 260 266 265
354 353 353 3 28 28 17 8 1 21 317 260 277 281 290 313 314 286 258 271 248 249 255 260 261 214 249 254 259 297 307 287 290 292 243 238 280 282 286 293 289 251 250 251 258
354 354 354 4 10 3 6 10 5 324 308 299 279 256 268 271 287 285 258 242 244 250 254 275 255 236 243 251 270 280 242 265 280 282 287 297 240 260 269 264 273 268 257 252 248
353 354 354 352 339 355 332 342 337 326 295 292 230 250 228 281 273 268 272 236 240 263 289 290 287 289 287 229 243 255 259 278 274 284 288 304 289 252 253 244 267 268 273 263 242
351 352 350 8 25 346 3 341 326 319 285 253 203 225 247 247 246 275 255 234 280 305 295 267 313 319 307 291 282 278 273 263 270 303 280 68 285 276 255 276 270 264 255 257 256
352 348 352 351 359 359 334 326 323 15 19 47 96 162 281 230 280 326 308 244 248 266 278 277 287 285 281 279 274 274 281 305 289 271 290 245 257 269 232 250 246 250 250 248 251
351 345 18 349 340 354 336 318 304 18 258 38 8 351 343 317 348 338 347 335 318 332 296 291 297 271 262 271 270 266 265 248 263 266 264 267 244 270 252 253 259 255 254 246 248
351 352 25 11 346 352 330 338 348 199 355 359 350 336 304 345 346 357 6 357 338 316 313 302 289 273 295 268 250 304 66 296 267 213 250 272 244 260 278 269 258 248 250 249 248
353 5 349 356 6 355 353 339 264 355 348 359 341 313 14 11 337 17 1 330 335 347 317 264 332 21 354 4 307 310 197 228 255 212 265 327 232 250 233 251 259 251 253 245 257
357 356 7 349 356 328 338 306 334 347 3 343 334 355 345 334 1 8 353 308 8 19 352 331 268 334 324 315 238 236 295 212 274 250 265 240 262 281 311 290 308 244 246 232 263
352 347 295 343 339 334 351 268 3 18 341 347 333 321 325 321 346 343 354 286 352 24 14 327 293 279 299 322 288 210 268 264 213 276 223 239 269 199 289 344 342 322 269 241 260
350 333 310 343 328 305 210 326 337 326 315 300 320 310 307 325 327 327 290 292 60 348 345 268 224 292 307 247 264 257 230 256 263 239 268 298 252 99 331 353 314 316 263 283 294
7 319 341 5 5 18 339 326 313 349 321 317 347 324 310 312 322 308 276 308 154 190 290 314 274 277 263 272 275 265 274 254 258 246 213 221 256 243 268 315 346 328 266 247 327
340 286 1 354 27 345 323 325 310 314 342 357 327 317 311 359 314 276 297 283 348 84 193 210 231 286 287 20 194 110 267 290 298 249 256 266 265 359 3 337 350 332 355 322 323
340 320 351 339 4 349 323 307 306 346 341 341 310 316 323 313 287 275 297 311 251 255 271 253 243 226 268 272 292 292 286 279 223 269 297 268 283 295 307 292 330 0 15 289 295
3 351 338 304 329 303 297 290 334 334 336 333 326 305 313 324 309 288 306 298 294 284 137 180 251 225 256 267 270 267 273 269 259 248 254 284 286 287 252 276 353 351 44 304 297
355 343 316 297 292 299 314 352 316 338 337 312 305 330 336 318 320 316 313 302 287 259 160 167 259 290 285 285 271 276 279 278 264 250 248 263 274 278 262 243 350 20 347 323 346
314 329 313 285 303 312 328 326 320 334 316 307 350 349 329 325 310 292 283 278 258 187 143 160 234 272 276 312 307 169 353 351 343 290 307 267 267 290 74 24 22 347 329 340 328